Вернуться в каталог

SL-8 DEB

АктивенLEO
NORAD 23263·DEBRIS·🇷🇺 Russia

Запущен Feb 12, 1991 с Plesetsk Cosmodrome

Loading…

Ближайшие Пролёты (ближайшие 24 часа)

TLE

УстаревшееSource: Space-Track

Эпоха: Sep 6, 2026, 15:02 UTC

1 23263U 91009CU  26249.62681748  .00000154  00000-0  17383-2 0  9994
2 23263  74.1277 122.4216 0164504  62.2820 326.5776 12.11020482645017

Отслеживайте SL-8 DEB в реальном времени с AllMySat

Download on the App Store